{"data":{"norad_id":57132,"intl_designator":"2023-090AH","name":"STARLINK-6128","alt_names":[],"object_type":"PAYLOAD","status":"ACTIVE","operator":null,"country":"US","launch_date":"2023-06-23","launch_site_code":"AFETR","launch_vehicle":null,"mission":null,"orbit_class":"UNKNOWN","rcs_meters":null,"size_class":null,"mass_kg":null,"dimensions":null,"purposes":["comms"],"wikipedia_slug":null,"has_3d_model":false,"image_url":null,"decayed_at":null,"tle_current":{"epoch":"2026-05-24T15:59:29.644512Z","epoch_age_seconds":107902,"freshness":"FRESH","line1":"1 57132U 23090AH  26144.66631533  .00000949  00000+0  44006-4 0  9991","line2":"2 57132  43.0018 212.3309 0001125 267.9867  92.0855 15.27582527161764","mean_motion":15.27582527,"eccentricity":0.0001125,"inclination_deg":43.0018,"raan_deg":212.3309,"arg_perigee_deg":267.9867,"mean_anomaly_deg":92.0855,"bstar":4.4006e-5,"rev_number":16176,"period_min":94.266592773092,"perigee_km":482.26964671846,"apogee_km":483.81341188755,"semimajor_km":6861.178529303,"source":"CELESTRAK","updated_at":"2026-05-25T13:38:18.245884Z"}}}